Time,TemperatureF,DewpointF,PressureIn,WindDirection,WindDirectionDegrees,WindSpeedMPH,WindSpeedGustMPH,Humidity,HourlyPrecipIn,Conditions,Clouds,dailyrainin,SolarRadiationWatts/m^2,SoftwareType,DateUTC
2013-03-20 00:00:00,12.8,1.2,30.08,SW,236,6.9,6.9,59,0.00,CLR,,0.00,0.0,WeatherDisplay:10.37,2013-03-20 05:00:00,
2013-03-20 00:05:00,12.7,1.4,30.08,North,355,3.5,3.5,60,0.00,CLR,,0.00,0.0,WeatherDisplay:10.37,2013-03-20 05:05:00,
2013-03-20 00:10:00,12.6,1.3,30.08,WSW,238,3.5,3.5,60,0.00,CLR,,0.00,0.0,WeatherDisplay:10.37,2013-03-20 05:10:00,
2013-03-20 00:15:00,12.3,1.4,30.08,SW,222,3.5,3.5,61,0.00,CLR,,0.00,0.0,WeatherDisplay:10.37,2013-03-20 05:15:00,
2013-03-20 00:20:00,12.1,1.2,30.09,WSW,244,4.0,4.0,61,0.00,CLR,,0.00,0.0,WeatherDisplay:10.37,2013-03-20 05:20:00,
2013-03-20 00:25:00,11.9,1.0,30.09,WNW,298,9.2,9.2,61,0.00,CLR,,0.00,0.0,WeatherDisplay:10.37,2013-03-20 05:25:00,
2013-03-20 00:30:00,11.8,0.9,30.09,ESE,114,2.0,2.0,61,0.00,CLR,,0.00,0.0,WeatherDisplay:10.37,2013-03-20 05:30:00,
2013-03-20 00:35:00,11.6,0.4,30.09,North,360,11.5,11.5,60,0.00,CLR,,0.00,0.0,WeatherDisplay:10.37,2013-03-20 05:35:00,
2013-03-20 00:40:00,11.5,0.6,30.09,SW,235,2.3,2.3,61,0.00,CLR,,0.00,0.0,WeatherDisplay:10.37,2013-03-20 05:40:00,
2013-03-20 00:45:00,11.3,0.8,30.09,North,5,3.5,3.5,62,0.00,CLR,,0.00,0.0,WeatherDisplay:10.37,2013-03-20 05:45:00,
2013-03-20 00:50:00,11.2,0.7,30.09,NNE,12,4.0,4.0,62,0.00,CLR,,0.00,0.0,WeatherDisplay:10.37,2013-03-20 05:50:00,
2013-03-20 00:55:00,11.0,0.2,30.09,SW,228,8.1,8.1,61,0.00,CLR,,0.00,0.0,WeatherDisplay:10.37,2013-03-20 05:55:00,
2013-03-20 01:00:00,10.9,0.4,30.09,WNW,303,9.2,9.2,62,0.00,CLR,,0.00,0.0,WeatherDisplay:10.37,2013-03-20 06:00:00,
2013-03-20 01:05:00,10.8,0.3,30.09,NNW,336,3.5,3.5,62,0.00,CLR,,0.00,0.0,WeatherDisplay:10.37,2013-03-20 06:05:00,
2013-03-20 01:10:00,10.7,0.2,30.10,NE,54,11.5,11.5,62,0.00,CLR,,0.00,0.0,WeatherDisplay:10.37,2013-03-20 06:10:00,
2013-03-20 01:15:00,10.7,0.2,30.09,WNW,286,4.6,4.6,62,0.00,CLR,,0.00,0.0,WeatherDisplay:10.37,2013-03-20 06:15:00,
2013-03-20 01:20:00,10.5,0.0,30.09,SW,235,6.9,6.9,62,0.00,CLR,,0.00,0.0,WeatherDisplay:10.37,2013-03-20 06:20:00,
2013-03-20 01:25:00,10.2,-0.2,30.09,West,262,2.3,2.3,62,0.00,CLR,,0.00,0.0,WeatherDisplay:10.37,2013-03-20 06:25:00,
2013-03-20 01:30:00,10.0,-0.1,30.09,WNW,288,10.4,10.4,63,0.00,CLR,,0.00,0.0,WeatherDisplay:10.37,2013-03-20 06:30:00,
2013-03-20 01:35:00,10.0,-0.1,30.10,WSW,242,2.3,2.3,63,0.00,CLR,,0.00,0.0,WeatherDisplay:10.37,2013-03-20 06:35:00,
2013-03-20 01:40:00,9.8,-0.3,30.10,WSW,256,5.8,5.8,63,0.00,CLR,,0.00,0.0,WeatherDisplay:10.37,2013-03-20 06:40:00,
2013-03-20 01:45:00,9.6,-0.5,30.10,West,273,2.3,2.3,63,0.00,CLR,,0.00,0.0,WeatherDisplay:10.37,2013-03-20 06:45:00,
2013-03-20 01:51:00,9.3,-0.4,30.10,WSW,240,2.3,2.3,64,0.00,CLR,,0.00,0.0,WeatherDisplay:10.37,2013-03-20 06:51:00,
2013-03-20 01:56:00,9.1,-0.6,30.09,WSW,254,5.8,5.8,64,0.00,CLR,,0.00,0.0,WeatherDisplay:10.37,2013-03-20 06:56:00,
2013-03-20 02:01:00,9.0,-0.7,30.09,West,280,6.9,6.9,64,0.00,CLR,,0.00,0.0,WeatherDisplay:10.37,2013-03-20 07:01:00,
2013-03-20 02:06:00,8.8,-0.6,30.10,ESE,113,2.3,2.3,65,0.00,CLR,,0.00,0.0,WeatherDisplay:10.37,2013-03-20 07:06:00,
2013-03-20 02:11:00,8.6,-0.8,30.10,West,262,3.5,3.5,65,0.00,CLR,,0.00,0.0,WeatherDisplay:10.37,2013-03-20 07:11:00,
2013-03-20 02:16:00,8.6,-0.8,30.10,West,275,3.5,3.5,65,0.00,CLR,,0.00,0.0,WeatherDisplay:10.37,2013-03-20 07:16:00,
2013-03-20 02:21:00,8.4,-1.0,30.10,West,273,1.1,1.1,65,0.00,CLR,,0.00,0.0,WeatherDisplay:10.37,2013-03-20 07:21:00,
2013-03-20 02:27:00,8.2,-1.2,30.10,West,271,2.3,2.3,65,0.00,CLR,,0.00,0.0,WeatherDisplay:10.37,2013-03-20 07:27:00,
2013-03-20 02:32:00,8.1,-1.2,30.10,WSW,246,3.5,3.5,65,0.00,CLR,,0.00,0.0,WeatherDisplay:10.37,2013-03-20 07:32:00,
2013-03-20 02:37:00,7.8,-1.2,30.10,WSW,254,4.6,4.6,66,0.00,CLR,,0.00,0.0,WeatherDisplay:10.37,2013-03-20 07:37:00,
2013-03-20 02:42:00,7.7,-1.6,30.10,WNW,298,3.5,3.5,65,0.00,CLR,,0.00,0.0,WeatherDisplay:10.37,2013-03-20 07:42:00,
2013-03-20 02:47:00,7.6,-1.7,30.10,WNW,294,3.5,3.5,65,0.00,CLR,,0.00,0.0,WeatherDisplay:10.37,2013-03-20 07:47:00,
2013-03-20 02:52:00,7.4,-1.6,30.10,ENE,78,4.6,4.6,66,0.00,CLR,,0.00,0.0,WeatherDisplay:10.37,2013-03-20 07:52:00,
2013-03-20 02:57:00,7.3,-1.7,30.09,WSW,253,3.5,3.5,66,0.00,CLR,,0.00,0.0,WeatherDisplay:10.37,2013-03-20 07:57:00,
2013-03-20 03:02:00,7.2,-1.8,30.10,SW,232,3.5,3.5,66,0.00,CLR,,0.00,0.0,WeatherDisplay:10.37,2013-03-20 08:02:00,
2013-03-20 03:07:00,7.1,-1.6,30.10,WSW,248,2.3,2.3,67,0.00,CLR,,0.00,0.0,WeatherDisplay:10.37,2013-03-20 08:07:00,
2013-03-20 03:12:00,6.9,-1.8,30.10,NNE,12,3.5,3.5,67,0.00,CLR,,0.00,0.0,WeatherDisplay:10.37,2013-03-20 08:12:00,
2013-03-20 03:17:00,6.8,-1.8,30.10,North,9,4.6,4.6,67,0.00,CLR,,0.00,0.0,WeatherDisplay:10.37,2013-03-20 08:17:00,
2013-03-20 03:22:00,6.7,-1.9,30.10,West,269,6.0,6.0,67,0.00,CLR,,0.00,0.0,WeatherDisplay:10.37,2013-03-20 08:22:00,
2013-03-20 03:27:00,6.6,-2.0,30.10,WNW,287,6.0,6.0,67,0.00,CLR,,0.00,0.0,WeatherDisplay:10.37,2013-03-20 08:27:00,
2013-03-20 03:32:00,6.4,-2.2,30.10,West,276,3.5,3.5,67,0.00,CLR,,0.00,0.0,WeatherDisplay:10.37,2013-03-20 08:32:00,
2013-03-20 03:37:00,6.3,-2.0,30.10,NNE,29,5.8,5.8,68,0.00,CLR,,0.00,0.0,WeatherDisplay:10.37,2013-03-20 08:37:00,
2013-03-20 03:42:00,6.2,-2.1,30.10,WSW,248,11.5,11.5,68,0.00,CLR,,0.00,0.0,WeatherDisplay:10.37,2013-03-20 08:42:00,
2013-03-20 03:47:00,6.2,-2.4,30.09,WSW,251,3.5,3.5,67,0.00,CLR,,0.00,0.0,WeatherDisplay:10.37,2013-03-20 08:47:00,
2013-03-20 03:52:00,6.0,-2.3,30.10,WSW,251,3.5,3.5,68,0.00,CLR,,0.00,0.0,WeatherDisplay:10.37,2013-03-20 08:52:00,
2013-03-20 03:57:00,5.9,-2.4,30.09,West,277,3.5,3.5,68,0.00,CLR,,0.00,0.0,WeatherDisplay:10.37,2013-03-20 08:57:00,
2013-03-20 04:02:00,5.8,-2.5,30.10,WSW,246,3.5,3.5,68,0.00,CLR,,0.00,0.0,WeatherDisplay:10.37,2013-03-20 09:02:00,
2013-03-20 04:07:00,5.6,-2.7,30.10,West,267,4.0,4.0,68,0.00,CLR,,0.00,0.0,WeatherDisplay:10.37,2013-03-20 09:07:00,
2013-03-20 04:12:00,5.6,-2.7,30.10,West,278,6.9,6.9,68,0.00,CLR,,0.00,0.0,WeatherDisplay:10.37,2013-03-20 09:12:00,
2013-03-20 04:17:00,5.6,-2.7,30.10,WNW,289,2.0,2.0,68,0.00,CLR,,0.00,0.0,WeatherDisplay:10.37,2013-03-20 09:17:00,
2013-03-20 04:22:00,5.5,-2.5,30.10,West,272,5.0,5.0,69,0.00,CLR,,0.00,0.0,WeatherDisplay:10.37,2013-03-20 09:22:00,
2013-03-20 04:27:00,5.5,-2.5,30.10,WNW,286,6.9,6.9,69,0.00,CLR,,0.00,0.0,WeatherDisplay:10.37,2013-03-20 09:27:00,
2013-03-20 04:32:00,5.5,-2.5,30.10,West,268,2.3,2.3,69,0.00,CLR,,0.00,0.0,WeatherDisplay:10.37,2013-03-20 09:32:00,
2013-03-20 04:37:00,5.5,-2.2,30.10,NNE,15,2.3,2.3,70,0.00,CLR,,0.00,0.0,WeatherDisplay:10.37,2013-03-20 09:37:00,
2013-03-20 04:42:00,5.5,-2.5,30.10,WNW,296,3.5,3.5,69,0.00,CLR,,0.00,0.0,WeatherDisplay:10.37,2013-03-20 09:42:00,
2013-03-20 04:47:00,5.4,-2.3,30.10,NW,311,1.1,1.1,70,0.00,CLR,,0.00,0.0,WeatherDisplay:10.37,2013-03-20 09:47:00,
2013-03-20 04:52:00,5.3,-2.4,30.10,NE,38,3.5,3.5,70,0.00,CLR,,0.00,0.0,WeatherDisplay:10.37,2013-03-20 09:52:00,
2013-03-20 04:57:00,5.3,-2.4,30.10,WSW,248,6.9,6.9,70,0.00,CLR,,0.00,0.0,WeatherDisplay:10.37,2013-03-20 09:57:00,
2013-03-20 05:02:00,5.3,-2.1,30.10,WSW,248,3.5,3.5,71,0.00,OVC,,0.00,0.0,WeatherDisplay:10.37,2013-03-20 10:02:00,
2013-03-20 05:08:00,5.3,-2.1,30.10,NW,326,3.0,3.0,71,0.00,OVC,,0.00,0.0,WeatherDisplay:10.37,2013-03-20 10:08:00,
2013-03-20 05:13:00,5.3,-2.1,30.10,WSW,254,3.5,3.5,71,0.00,OVC,,0.00,0.0,WeatherDisplay:10.37,2013-03-20 10:13:00,
2013-03-20 05:18:00,5.3,-1.8,30.10,SSW,211,6.9,6.9,72,0.00,OVC,,0.00,0.0,WeatherDisplay:10.37,2013-03-20 10:18:00,
2013-03-20 05:23:00,5.4,-1.7,30.10,NNW,340,1.1,1.1,72,0.00,OVC,,0.00,0.0,WeatherDisplay:10.37,2013-03-20 10:23:00,
2013-03-20 05:28:00,5.3,-1.5,30.10,NNW,336,2.3,2.3,73,0.00,OVC,,0.00,0.0,WeatherDisplay:10.37,2013-03-20 10:28:00,
2013-03-20 05:33:00,5.3,-1.5,30.10,SW,229,2.0,2.0,73,0.00,OVC,,0.00,0.0,WeatherDisplay:10.37,2013-03-20 10:33:00,
2013-03-20 05:38:00,5.3,-1.2,30.10,North,355,3.5,3.5,74,0.00,OVC,,0.00,0.0,WeatherDisplay:10.37,2013-03-20 10:38:00,
2013-03-20 05:43:00,5.3,-1.2,30.10,West,276,3.5,3.5,74,0.00,OVC,,0.00,0.0,WeatherDisplay:10.37,2013-03-20 10:43:00,
2013-03-20 05:48:00,5.3,-1.2,30.10,WNW,290,4.6,4.6,74,0.00,OVC,,0.00,0.0,WeatherDisplay:10.37,2013-03-20 10:48:00,
2013-03-20 05:53:00,5.4,-0.8,30.10,WSW,240,3.5,3.5,75,0.00,OVC,,0.00,0.0,WeatherDisplay:10.37,2013-03-20 10:53:00,
2013-03-20 05:58:00,5.3,-0.6,30.10,SW,234,1.1,1.1,76,0.00,OVC,,0.00,0.0,WeatherDisplay:10.37,2013-03-20 10:58:00,
2013-03-20 06:03:00,5.4,-0.5,30.10,West,270,1.0,0.0,76,0.00,-SN,,0.00,0.0,WeatherDisplay:10.37,2013-03-20 11:03:00,
2013-03-20 06:08:00,5.4,-0.2,30.10,WSW,243,3.5,3.5,77,0.00,-SN,,0.00,0.0,WeatherDisplay:10.37,2013-03-20 11:08:00,
2013-03-20 06:13:00,5.4,-0.5,30.10,NW,306,5.0,0.0,76,0.00,-SN,,0.00,0.0,WeatherDisplay:10.37,2013-03-20 11:13:00,
2013-03-20 06:18:00,5.4,-0.2,30.10,West,267,4.6,4.6,77,0.00,-SN,,0.00,0.0,WeatherDisplay:10.37,2013-03-20 11:18:00,
2013-03-20 06:23:00,5.3,-0.3,30.10,SW,236,1.1,1.1,77,0.00,-SN,,0.00,0.0,WeatherDisplay:10.37,2013-03-20 11:23:00,
2013-03-20 06:28:00,5.3,-0.3,30.10,NNW,337,4.6,4.6,77,0.00,-SN,,0.00,0.0,WeatherDisplay:10.37,2013-03-20 11:28:00,
2013-03-20 06:33:00,5.3,-0.3,30.10,West,280,3.5,3.5,77,0.00,-SN,,0.00,0.0,WeatherDisplay:10.37,2013-03-20 11:33:00,
2013-03-20 06:38:00,5.2,-0.4,30.10,West,276,4.0,4.0,77,0.00,-SN,,0.00,0.0,WeatherDisplay:10.37,2013-03-20 11:38:00,
2013-03-20 06:43:00,5.1,-0.5,30.10,NNW,346,3.5,3.5,77,0.00,-SN,,0.00,0.0,WeatherDisplay:10.37,2013-03-20 11:43:00,
2013-03-20 06:48:00,5.0,-0.6,30.10,North,355,1.1,1.1,77,0.00,-SN,,0.00,0.0,WeatherDisplay:10.37,2013-03-20 11:48:00,
2013-03-20 06:53:00,4.9,-0.5,30.11,West,270,2.3,0.0,78,0.00,-SN,,0.00,0.0,WeatherDisplay:10.37,2013-03-20 11:53:00,
2013-03-20 06:58:00,4.8,-0.6,30.11,WNW,291,0.0,0.0,78,0.00,-SN,,0.00,0.0,WeatherDisplay:10.37,2013-03-20 11:58:00,
2013-03-20 07:03:00,4.8,-0.6,30.11,WSW,248,2.3,2.3,78,0.00,-SN,,0.00,0.0,WeatherDisplay:10.37,2013-03-20 12:03:00,
2013-03-20 07:08:00,4.7,-0.7,30.11,North,5,3.5,3.5,78,0.00,-SN,,0.00,0.0,WeatherDisplay:10.37,2013-03-20 12:08:00,
2013-03-20 07:13:00,4.7,-0.7,30.11,NW,321,0.0,0.0,78,0.00,-SN,,0.00,0.0,WeatherDisplay:10.37,2013-03-20 12:13:00,
2013-03-20 07:18:00,4.6,-0.8,30.11,WNW,284,3.5,3.5,78,0.00,-SN,,0.00,5.0,WeatherDisplay:10.37,2013-03-20 12:18:00,
2013-03-20 07:23:00,4.7,-0.7,30.11,SW,221,3.5,3.5,78,0.00,-SN,,0.00,7.0,WeatherDisplay:10.37,2013-03-20 12:23:00,
2013-03-20 07:28:00,4.7,-0.4,30.11,WSW,251,5.0,5.0,79,0.00,-SN,,0.00,7.0,WeatherDisplay:10.37,2013-03-20 12:28:00,
2013-03-20 07:33:00,4.8,-0.3,30.11,WSW,257,1.1,1.1,79,0.00,-SN,,0.00,9.0,WeatherDisplay:10.37,2013-03-20 12:33:00,
2013-03-20 07:38:00,4.8,-0.3,30.11,WNW,284,8.1,8.1,79,0.00,-SN,,0.00,16.0,WeatherDisplay:10.37,2013-03-20 12:38:00,
2013-03-20 07:43:00,4.8,-0.3,30.11,West,272,1.1,1.1,79,0.00,-SN,,0.00,21.0,WeatherDisplay:10.37,2013-03-20 12:43:00,
2013-03-20 07:48:00,5.0,-0.1,30.11,WSW,241,1.1,1.1,79,0.00,-SN,,0.00,32.0,WeatherDisplay:10.37,2013-03-20 12:48:00,
2013-03-20 07:53:00,5.2,0.1,30.11,WNW,294,1.0,1.0,79,0.00,-SN,,0.00,32.0,WeatherDisplay:10.37,2013-03-20 12:53:00,
2013-03-20 07:58:00,5.4,0.0,30.11,West,281,2.3,2.3,78,0.00,-SN,,0.00,37.0,WeatherDisplay:10.37,2013-03-20 12:58:00,
2013-03-20 08:03:00,5.6,0.2,30.11,West,276,4.6,4.6,78,0.00,-SN,,0.00,32.0,WeatherDisplay:10.37,2013-03-20 13:03:00,
2013-03-20 08:08:00,5.8,0.4,30.11,WSW,240,2.0,0.0,78,0.00,-SN,,0.00,39.0,WeatherDisplay:10.37,2013-03-20 13:08:00,
2013-03-20 08:13:00,6.0,0.6,30.11,SW,228,1.1,1.1,78,0.00,-SN,,0.00,42.0,WeatherDisplay:10.37,2013-03-20 13:13:00,
2013-03-20 08:19:00,6.1,0.7,30.11,SW,221,3.5,3.5,78,0.00,-SN,,0.00,42.0,WeatherDisplay:10.37,2013-03-20 13:19:00,
2013-03-20 08:24:00,6.2,0.8,30.11,West,272,4.6,4.6,78,0.00,-SN,,0.00,54.0,WeatherDisplay:10.37,2013-03-20 13:24:00,
2013-03-20 08:29:00,6.4,0.7,30.12,West,259,3.5,3.5,77,0.00,-SN,,0.00,56.0,WeatherDisplay:10.37,2013-03-20 13:29:00,
2013-03-20 08:34:00,6.5,0.8,30.12,West,269,3.5,3.5,77,0.00,-SN,,0.00,53.0,WeatherDisplay:10.37,2013-03-20 13:34:00,
2013-03-20 08:39:00,6.7,1.0,30.12,WSW,243,8.1,8.1,77,0.00,-SN,,0.00,60.0,WeatherDisplay:10.37,2013-03-20 13:39:00,
2013-03-20 08:44:00,7.0,1.0,30.11,NW,325,4.6,4.6,76,0.00,-SN,,0.00,51.0,WeatherDisplay:10.37,2013-03-20 13:44:00,
2013-03-20 08:49:00,7.2,1.2,30.12,West,261,2.3,2.3,76,0.00,-SN,,0.00,47.0,WeatherDisplay:10.37,2013-03-20 13:49:00,
2013-03-20 08:54:00,7.2,0.9,30.11,West,261,5.8,5.8,75,0.00,-SN,,0.00,42.0,WeatherDisplay:10.37,2013-03-20 13:54:00,
2013-03-20 08:59:00,7.4,1.1,30.11,NE,56,1.1,0.0,75,0.00,-SN,,0.00,49.0,WeatherDisplay:10.37,2013-03-20 13:59:00,
2013-03-20 09:04:00,7.6,1.3,30.12,WNW,288,3.5,3.5,75,0.00,-SN,,0.00,46.0,WeatherDisplay:10.37,2013-03-20 14:04:00,
2013-03-20 09:09:00,7.8,1.2,30.12,West,272,3.5,3.5,74,0.00,-SN,,0.00,44.0,WeatherDisplay:10.37,2013-03-20 14:09:00,
2013-03-20 09:14:00,8.0,1.4,30.12,WSW,254,3.5,3.5,74,0.00,-SN,,0.00,51.0,WeatherDisplay:10.37,2013-03-20 14:14:00,
2013-03-20 09:19:00,8.2,1.0,30.12,West,267,6.9,6.9,72,0.00,-SN,,0.00,46.0,WeatherDisplay:10.37,2013-03-20 14:19:00,
2013-03-20 09:24:00,8.3,1.1,30.12,West,265,9.2,9.2,72,0.00,-SN,,0.00,58.0,WeatherDisplay:10.37,2013-03-20 14:24:00,
2013-03-20 09:29:00,8.5,1.6,30.12,West,273,3.0,3.0,73,0.00,-SN,,0.00,137.0,WeatherDisplay:10.37,2013-03-20 14:29:00,
2013-03-20 09:34:00,8.7,1.8,30.12,WSW,254,3.5,3.5,73,0.00,-SN,,0.00,60.0,WeatherDisplay:10.37,2013-03-20 14:34:00,
2013-03-20 09:39:00,8.9,1.7,30.11,West,263,3.5,3.5,72,0.00,-SN,,0.00,72.0,WeatherDisplay:10.37,2013-03-20 14:39:00,
2013-03-20 09:44:00,9.2,2.0,30.12,West,279,1.1,1.1,72,0.00,-SN,,0.00,65.0,WeatherDisplay:10.37,2013-03-20 14:44:00,
2013-03-20 09:49:00,9.4,1.9,30.12,NNW,342,6.9,6.9,71,0.00,-SN,,0.00,165.0,WeatherDisplay:10.37,2013-03-20 14:49:00,
2013-03-20 09:54:00,9.4,1.9,30.12,NNW,327,6.9,6.9,71,0.00,-SN,,0.00,139.0,WeatherDisplay:10.37,2013-03-20 14:54:00,
2013-03-20 09:59:00,9.6,2.1,30.11,NNW,340,5.8,5.8,71,0.00,-SN,,0.00,86.0,WeatherDisplay:10.37,2013-03-20 14:59:00,
2013-03-20 10:04:00,9.7,2.2,30.11,SW,236,2.3,2.3,71,0.00,-SN,,0.00,91.0,WeatherDisplay:10.37,2013-03-20 15:04:00,
2013-03-20 10:09:00,10.0,2.5,30.11,WSW,247,5.0,5.0,71,0.00,-SN,,0.00,86.0,WeatherDisplay:10.37,2013-03-20 15:09:00,
2013-03-20 10:14:00,10.2,2.4,30.11,WNW,290,6.9,6.9,70,0.00,-SN,,0.00,105.0,WeatherDisplay:10.37,2013-03-20 15:14:00,
2013-03-20 10:19:00,10.5,2.6,30.11,NE,46,6.9,6.9,70,0.00,-SN,,0.00,153.0,WeatherDisplay:10.37,2013-03-20 15:19:00,
2013-03-20 10:24:00,10.7,2.8,30.11,North,5,5.8,5.8,70,0.00,-SN,,0.00,139.0,WeatherDisplay:10.37,2013-03-20 15:24:00,
2013-03-20 10:30:00,10.8,2.9,30.11,NNW,329,3.5,3.5,70,0.00,-SN,,0.00,104.0,WeatherDisplay:10.37,2013-03-20 15:30:00,
2013-03-20 10:35:00,11.0,3.1,30.11,North,349,6.9,6.9,70,0.00,-SN,,0.00,100.0,WeatherDisplay:10.37,2013-03-20 15:35:00,
2013-03-20 10:40:00,11.2,3.0,30.11,WNW,293,5.8,5.8,69,0.00,-SN,,0.00,102.0,WeatherDisplay:10.37,2013-03-20 15:40:00,
2013-03-20 10:45:00,11.4,3.2,30.11,WNW,290,4.0,4.0,69,0.00,-SN,,0.00,100.0,WeatherDisplay:10.37,2013-03-20 15:45:00,
2013-03-20 10:50:00,11.7,3.2,30.11,North,351,4.6,4.6,68,0.00,-SN,,0.00,207.0,WeatherDisplay:10.37,2013-03-20 15:50:00,
2013-03-20 10:55:00,12.1,3.6,30.11,WSW,241,8.1,8.1,68,0.00,-SN,,0.00,135.0,WeatherDisplay:10.37,2013-03-20 15:55:00,
2013-03-20 11:00:00,12.4,3.8,30.11,NE,51,8.1,8.1,68,0.00,-SN,,0.00,163.0,WeatherDisplay:10.37,2013-03-20 16:00:00,
2013-03-20 11:05:00,12.6,3.4,30.12,North,5,8.1,8.1,66,0.00,OVC,,0.00,134.0,WeatherDisplay:10.37,2013-03-20 16:05:00,
2013-03-20 11:10:00,12.7,3.5,30.12,WSW,242,4.0,4.0,66,0.00,OVC,,0.00,135.0,WeatherDisplay:10.37,2013-03-20 16:10:00,
2013-03-20 11:15:00,12.9,3.7,30.12,SW,226,6.9,6.9,66,0.00,OVC,,0.00,197.0,WeatherDisplay:10.37,2013-03-20 16:15:00,
2013-03-20 11:20:00,13.3,4.1,30.12,West,275,3.5,3.5,66,0.00,OVC,,0.00,239.0,WeatherDisplay:10.37,2013-03-20 16:20:00,
2013-03-20 11:25:00,13.5,3.9,30.12,NNW,339,4.6,4.6,65,0.00,OVC,,0.00,204.0,WeatherDisplay:10.37,2013-03-20 16:25:00,
2013-03-20 11:30:00,13.3,3.4,30.11,West,279,9.2,9.2,64,0.00,OVC,,0.00,302.0,WeatherDisplay:10.37,2013-03-20 16:30:00,
2013-03-20 11:35:00,13.3,3.4,30.12,North,350,4.6,4.6,64,0.00,OVC,,0.00,218.0,WeatherDisplay:10.37,2013-03-20 16:35:00,
2013-03-20 11:40:00,13.5,3.9,30.11,SW,236,3.5,3.5,65,0.00,OVC,,0.00,297.0,WeatherDisplay:10.37,2013-03-20 16:40:00,
2013-03-20 11:45:00,13.8,3.9,30.12,SW,221,6.9,6.9,64,0.00,OVC,,0.00,501.0,WeatherDisplay:10.37,2013-03-20 16:45:00,
2013-03-20 11:50:00,13.9,4.3,30.12,NW,306,2.3,2.3,65,0.00,OVC,,0.00,357.0,WeatherDisplay:10.37,2013-03-20 16:50:00,
2013-03-20 11:55:00,14.7,4.4,30.12,NW,314,8.1,8.1,63,0.00,OVC,,0.00,274.0,WeatherDisplay:10.37,2013-03-20 16:55:00,
2013-03-20 12:00:00,15.1,5.1,30.12,WNW,284,6.9,6.9,64,0.00,OVC,,0.00,315.0,WeatherDisplay:10.37,2013-03-20 17:00:00,
2013-03-20 12:05:00,15.5,5.1,30.12,NE,56,10.4,10.4,63,0.00,OVC,,0.00,793.0,WeatherDisplay:10.37,2013-03-20 17:05:00,
2013-03-20 12:10:00,15.3,4.6,30.12,SW,219,3.5,3.5,62,0.00,OVC,,0.00,283.0,WeatherDisplay:10.37,2013-03-20 17:10:00,
2013-03-20 12:15:00,15.6,4.9,30.12,WNW,300,3.5,3.5,62,0.00,OVC,,0.00,350.0,WeatherDisplay:10.37,2013-03-20 17:15:00,
2013-03-20 12:20:00,15.6,4.5,30.11,NNE,27,3.5,3.5,61,0.00,OVC,,0.00,308.0,WeatherDisplay:10.37,2013-03-20 17:20:00,
2013-03-20 12:25:00,15.4,4.7,30.11,NNE,26,3.5,3.5,62,0.00,OVC,,0.00,148.0,WeatherDisplay:10.37,2013-03-20 17:25:00,
2013-03-20 12:30:00,15.1,4.4,30.11,WSW,244,3.5,3.5,62,0.00,OVC,,0.00,223.0,WeatherDisplay:10.37,2013-03-20 17:30:00,
2013-03-20 12:35:00,15.3,4.2,30.12,WSW,238,8.0,8.0,61,0.00,OVC,,0.00,309.0,WeatherDisplay:10.37,2013-03-20 17:35:00,
2013-03-20 12:40:00,15.2,4.5,30.12,WSW,254,9.0,9.0,62,0.00,OVC,,0.00,251.0,WeatherDisplay:10.37,2013-03-20 17:40:00,
2013-03-20 12:45:00,15.3,4.9,30.11,NNW,344,1.1,1.1,63,0.00,OVC,,0.00,260.0,WeatherDisplay:10.37,2013-03-20 17:45:00,
2013-03-20 12:50:00,15.5,4.4,30.12,SW,217,4.6,4.6,61,0.00,OVC,,0.00,237.0,WeatherDisplay:10.37,2013-03-20 17:50:00,
2013-03-20 12:55:00,15.6,5.2,30.11,NNE,13,3.5,3.5,63,0.00,OVC,,0.00,346.0,WeatherDisplay:10.37,2013-03-20 17:55:00,
2013-03-20 13:00:00,16.2,5.1,30.11,SW,221,3.5,3.5,61,0.00,OVC,,0.00,316.0,WeatherDisplay:10.37,2013-03-20 18:00:00,
2013-03-20 13:05:00,17.0,5.9,30.12,NNW,345,3.5,3.5,61,0.00,OVC,,0.00,417.0,WeatherDisplay:10.37,2013-03-20 18:05:00,
2013-03-20 13:10:00,16.7,4.8,30.12,NNE,22,6.9,6.9,59,0.00,OVC,,0.00,225.0,WeatherDisplay:10.37,2013-03-20 18:10:00,
2013-03-20 13:15:00,16.5,5.0,30.12,West,265,3.5,3.5,60,0.00,OVC,,0.00,246.0,WeatherDisplay:10.37,2013-03-20 18:15:00,
2013-03-20 13:20:00,16.2,5.1,30.11,NE,52,5.8,5.8,61,0.00,OVC,,0.00,267.0,WeatherDisplay:10.37,2013-03-20 18:20:00,
2013-03-20 13:25:00,16.5,5.0,30.11,NNW,335,6.0,6.0,60,0.00,OVC,,0.00,281.0,WeatherDisplay:10.37,2013-03-20 18:25:00,
2013-03-20 13:30:00,16.3,4.8,30.11,NW,326,6.9,6.9,60,0.00,OVC,,0.00,232.0,WeatherDisplay:10.37,2013-03-20 18:30:00,
2013-03-20 13:35:00,16.2,4.4,30.11,WSW,241,6.9,6.9,59,0.00,OVC,,0.00,313.0,WeatherDisplay:10.37,2013-03-20 18:35:00,
2013-03-20 13:40:00,16.3,4.5,30.11,WSW,244,5.0,5.0,59,0.00,OVC,,0.00,336.0,WeatherDisplay:10.37,2013-03-20 18:40:00,
2013-03-20 13:45:00,17.1,5.6,30.11,WNW,285,3.5,3.5,60,0.00,OVC,,0.00,466.0,WeatherDisplay:10.37,2013-03-20 18:45:00,
2013-03-20 13:50:00,17.5,5.2,30.11,North,5,3.5,3.5,58,0.00,OVC,,0.00,334.0,WeatherDisplay:10.37,2013-03-20 18:50:00,
2013-03-20 13:55:00,17.5,4.8,30.11,NNW,340,4.6,4.6,57,0.00,OVC,,0.00,267.0,WeatherDisplay:10.37,2013-03-20 18:55:00,
2013-03-20 14:00:00,17.7,5.0,30.11,West,281,6.9,6.9,57,0.00,OVC,,0.00,294.0,WeatherDisplay:10.37,2013-03-20 19:00:00,
2013-03-20 14:05:00,17.8,5.5,30.11,WSW,244,1.1,1.1,58,0.00,BKN,,0.00,258.0,WeatherDisplay:10.37,2013-03-20 19:05:00,
2013-03-20 14:10:00,17.8,5.1,30.11,West,259,2.0,2.0,57,0.00,BKN,,0.00,343.0,WeatherDisplay:10.37,2013-03-20 19:10:00,
2013-03-20 14:15:00,17.6,4.5,30.11,SW,229,10.4,10.4,56,0.00,BKN,,0.00,322.0,WeatherDisplay:10.37,2013-03-20 19:15:00,
2013-03-20 14:20:00,17.3,4.3,30.11,West,278,6.9,6.9,56,0.00,BKN,,0.00,288.0,WeatherDisplay:10.37,2013-03-20 19:20:00,
2013-03-20 14:25:00,17.5,5.2,30.11,SW,234,5.8,5.8,58,0.00,BKN,,0.00,283.0,WeatherDisplay:10.37,2013-03-20 19:25:00,
2013-03-20 14:30:00,18.0,5.7,30.11,NE,36,3.5,3.5,58,0.00,BKN,,0.00,336.0,WeatherDisplay:10.37,2013-03-20 19:30:00,
2013-03-20 14:35:00,18.1,5.0,30.11,West,268,5.0,5.0,56,0.00,BKN,,0.00,311.0,WeatherDisplay:10.37,2013-03-20 19:35:00,
2013-03-20 14:40:00,18.2,5.5,30.11,West,260,4.6,4.6,57,0.00,BKN,,0.00,339.0,WeatherDisplay:10.37,2013-03-20 19:40:00,
2013-03-20 14:45:00,18.2,5.1,30.11,NNE,24,9.2,9.2,56,0.00,BKN,,0.00,278.0,WeatherDisplay:10.37,2013-03-20 19:45:00,
2013-03-20 14:50:00,18.2,5.9,30.11,North,5,3.5,3.5,58,0.00,BKN,,0.00,250.0,WeatherDisplay:10.37,2013-03-20 19:50:00,
2013-03-20 14:55:00,18.2,5.1,30.11,WSW,252,6.9,6.9,56,0.00,BKN,,0.00,267.0,WeatherDisplay:10.37,2013-03-20 19:55:00,
2013-03-20 15:00:00,18.2,5.5,30.11,SW,232,3.5,3.5,57,0.00,BKN,,0.00,274.0,WeatherDisplay:10.37,2013-03-20 20:00:00,
2013-03-20 15:05:00,18.8,5.7,30.11,WSW,248,5.8,5.8,56,0.00,OVC,,0.00,239.0,WeatherDisplay:10.37,2013-03-20 20:05:00,
2013-03-20 15:10:00,18.6,5.1,30.11,WSW,252,3.5,3.5,55,0.00,OVC,,0.00,297.0,WeatherDisplay:10.37,2013-03-20 20:10:00,
2013-03-20 15:15:00,18.5,4.6,30.11,WNW,285,9.2,9.2,54,0.00,OVC,,0.00,352.0,WeatherDisplay:10.37,2013-03-20 20:15:00,
2013-03-20 15:20:00,18.7,6.0,30.11,SW,236,3.5,3.5,57,0.00,OVC,,0.00,295.0,WeatherDisplay:10.37,2013-03-20 20:20:00,
2013-03-20 15:25:00,19.4,5.8,30.11,NW,306,3.5,3.5,55,0.00,OVC,,0.00,287.0,WeatherDisplay:10.37,2013-03-20 20:25:00,
2013-03-20 15:30:00,19.3,4.9,30.11,NNW,331,7.0,7.0,53,0.00,OVC,,0.00,234.0,WeatherDisplay:10.37,2013-03-20 20:30:00,
2013-03-20 15:36:00,19.0,4.7,30.11,NW,307,6.9,6.9,53,0.00,OVC,,0.00,269.0,WeatherDisplay:10.37,2013-03-20 20:36:00,
2013-03-20 15:41:00,18.8,5.3,30.11,WSW,240,4.6,4.6,55,0.00,OVC,,0.00,213.0,WeatherDisplay:10.37,2013-03-20 20:41:00,
2013-03-20 15:46:00,18.9,5.0,30.11,WSW,252,4.6,4.6,54,0.00,OVC,,0.00,271.0,WeatherDisplay:10.37,2013-03-20 20:46:00,
2013-03-20 15:51:00,19.1,5.2,30.12,WSW,244,5.8,5.8,54,0.00,OVC,,0.00,352.0,WeatherDisplay:10.37,2013-03-20 20:51:00,
2013-03-20 15:56:00,19.4,5.8,30.11,NW,309,3.5,3.5,55,0.00,OVC,,0.00,211.0,WeatherDisplay:10.37,2013-03-20 20:56:00,
2013-03-20 16:01:00,19.3,5.7,30.12,WSW,240,3.5,3.5,55,0.00,OVC,,0.00,169.0,WeatherDisplay:10.37,2013-03-20 21:01:00,
2013-03-20 16:06:00,19.2,5.7,30.12,North,355,3.5,3.5,55,0.00,OVC,,0.00,185.0,WeatherDisplay:10.37,2013-03-20 21:06:00,
2013-03-20 16:11:00,19.3,6.5,30.12,WSW,250,3.5,3.5,57,0.00,OVC,,0.00,174.0,WeatherDisplay:10.37,2013-03-20 21:11:00,
2013-03-20 16:16:00,19.3,5.7,30.12,WNW,284,1.1,1.1,55,0.00,OVC,,0.00,227.0,WeatherDisplay:10.37,2013-03-20 21:16:00,
2013-03-20 16:21:00,19.4,5.8,30.12,WNW,295,5.8,5.8,55,0.00,OVC,,0.00,155.0,WeatherDisplay:10.37,2013-03-20 21:21:00,
2013-03-20 16:26:00,19.1,5.6,30.12,WSW,255,4.6,4.6,55,0.00,OVC,,0.00,151.0,WeatherDisplay:10.37,2013-03-20 21:26:00,
2013-03-20 16:31:00,19.1,5.6,30.12,West,269,4.0,4.0,55,0.00,OVC,,0.00,135.0,WeatherDisplay:10.37,2013-03-20 21:31:00,
2013-03-20 16:36:00,19.1,5.6,30.12,West,281,4.6,0.0,55,0.00,OVC,,0.00,120.0,WeatherDisplay:10.37,2013-03-20 21:36:00,
2013-03-20 16:41:00,19.1,5.6,30.12,East,94,3.5,3.5,55,0.00,OVC,,0.00,188.0,WeatherDisplay:10.37,2013-03-20 21:41:00,
2013-03-20 16:46:00,19.2,5.7,30.12,WSW,237,5.8,5.8,55,0.00,OVC,,0.00,195.0,WeatherDisplay:10.37,2013-03-20 21:46:00,
2013-03-20 16:51:00,19.3,6.1,30.13,NNW,333,4.0,4.0,56,0.00,OVC,,0.00,176.0,WeatherDisplay:10.37,2013-03-20 21:51:00,
2013-03-20 16:56:00,19.9,6.7,30.13,NW,320,3.5,3.5,56,0.00,OVC,,0.00,265.0,WeatherDisplay:10.37,2013-03-20 21:56:00,
2013-03-20 17:01:00,20.0,6.4,30.13,North,355,2.3,2.3,55,0.00,OVC,,0.00,183.0,WeatherDisplay:10.37,2013-03-20 22:01:00,
2013-03-20 17:06:00,20.5,7.3,30.13,North,11,1.1,1.9,56,0.00,OVC,,0.00,178.0,WeatherDisplay:10.37,2013-03-20 22:06:00,
2013-03-20 17:11:00,20.7,7.1,30.13,NNW,335,1.1,1.1,55,0.00,OVC,,0.00,251.0,WeatherDisplay:10.37,2013-03-20 22:11:00,
2013-03-20 17:17:00,20.9,6.4,30.13,West,277,8.0,8.0,53,0.00,OVC,,0.00,352.0,WeatherDisplay:10.37,2013-03-20 22:17:00,
2013-03-20 17:22:00,20.7,6.7,30.13,WNW,290,4.0,4.0,54,0.00,OVC,,0.00,128.0,WeatherDisplay:10.37,2013-03-20 22:22:00,
2013-03-20 17:27:00,20.3,5.5,30.14,North,355,2.0,2.0,52,0.00,OVC,,0.00,118.0,WeatherDisplay:10.37,2013-03-20 22:27:00,
2013-03-20 17:32:00,20.2,5.4,30.14,NNE,33,1.1,0.0,52,0.00,OVC,,0.00,135.0,WeatherDisplay:10.37,2013-03-20 22:32:00,
2013-03-20 17:37:00,20.3,6.7,30.14,West,263,3.5,3.5,55,0.00,OVC,,0.00,181.0,WeatherDisplay:10.37,2013-03-20 22:37:00,
2013-03-20 17:42:00,20.4,6.4,30.14,NNE,16,5.8,5.8,54,0.00,OVC,,0.00,123.0,WeatherDisplay:10.37,2013-03-20 22:42:00,
2013-03-20 17:47:00,20.2,6.2,30.14,NE,34,3.5,3.5,54,0.00,OVC,,0.00,72.0,WeatherDisplay:10.37,2013-03-20 22:47:00,
2013-03-20 17:52:00,19.9,6.7,30.14,WSW,240,1.0,1.0,56,0.00,OVC,,0.00,46.0,WeatherDisplay:10.37,2013-03-20 22:52:00,
2013-03-20 17:57:00,19.7,6.1,30.14,NNW,336,2.3,2.3,55,0.00,OVC,,0.00,49.0,WeatherDisplay:10.37,2013-03-20 22:57:00,
2013-03-20 18:02:00,19.6,6.4,30.14,NNW,333,3.5,3.5,56,0.00,OVC,,0.00,47.0,WeatherDisplay:10.37,2013-03-20 23:02:00,
2013-03-20 18:07:00,19.4,5.8,30.14,North,360,3.5,3.5,55,0.00,OVC,,0.00,49.0,WeatherDisplay:10.37,2013-03-20 23:07:00,
2013-03-20 18:12:00,19.2,5.7,30.14,SSW,207,0.0,0.0,55,0.00,OVC,,0.00,42.0,WeatherDisplay:10.37,2013-03-20 23:12:00,
2013-03-20 18:17:00,18.9,5.8,30.14,NNE,22,3.5,0.0,56,0.00,SCT,,0.00,46.0,WeatherDisplay:10.37,2013-03-20 23:17:00,
2013-03-20 18:22:00,18.8,6.1,30.14,North,5,1.1,1.1,57,0.00,SCT,,0.00,47.0,WeatherDisplay:10.37,2013-03-20 23:22:00,
2013-03-20 18:27:00,18.8,6.4,30.15,NNW,344,0.0,0.2,58,0.00,SCT,,0.00,39.0,WeatherDisplay:10.37,2013-03-20 23:27:00,
2013-03-20 18:32:00,18.8,6.8,30.15,North,350,0.0,0.0,59,0.00,SCT,,0.00,28.0,WeatherDisplay:10.37,2013-03-20 23:32:00,
2013-03-20 18:38:00,18.7,6.7,30.15,North,5,1.1,1.1,59,0.00,SCT,,0.00,40.0,WeatherDisplay:10.37,2013-03-20 23:38:00,
2013-03-20 18:43:00,18.7,6.7,30.15,WNW,301,2.3,2.3,59,0.00,SCT,,0.00,28.0,WeatherDisplay:10.37,2013-03-20 23:43:00,
2013-03-20 18:48:00,18.7,6.7,30.15,North,350,2.3,2.3,59,0.00,SCT,,0.00,14.0,WeatherDisplay:10.37,2013-03-20 23:48:00,
2013-03-20 18:53:00,18.5,6.2,30.16,NNW,327,0.0,0.0,58,0.00,SCT,,0.00,12.0,WeatherDisplay:10.37,2013-03-20 23:53:00,
2013-03-20 18:58:00,18.4,6.4,30.16,NNW,327,0.0,0.0,59,0.00,SCT,,0.00,11.0,WeatherDisplay:10.37,2013-03-20 23:58:00,
2013-03-20 19:03:00,18.3,6.4,30.15,NNE,15,0.0,0.0,59,0.00,BKN,,0.00,7.0,WeatherDisplay:10.37,2013-03-21 00:03:00,
2013-03-20 19:08:00,18.1,6.5,30.16,NNE,15,0.0,0.0,60,0.00,BKN,,0.00,5.0,WeatherDisplay:10.37,2013-03-21 00:08:00,
2013-03-20 19:13:00,17.9,6.3,30.16,NNE,16,2.3,2.3,60,0.00,BKN,,0.00,0.0,WeatherDisplay:10.37,2013-03-21 00:13:00,
2013-03-20 19:18:00,17.8,5.9,30.16,NNE,13,0.0,0.0,59,0.00,BKN,,0.00,0.0,WeatherDisplay:10.37,2013-03-21 00:18:00,
2013-03-20 19:23:00,17.7,5.8,30.16,NNE,19,1.1,1.1,59,0.00,BKN,,0.00,0.0,WeatherDisplay:10.37,2013-03-21 00:23:00,
2013-03-20 19:28:00,17.5,6.0,30.16,WNW,289,1.1,1.1,60,0.00,BKN,,0.00,0.0,WeatherDisplay:10.37,2013-03-21 00:28:00,
2013-03-20 19:33:00,17.2,6.0,30.16,WNW,302,0.0,0.0,61,0.00,BKN,,0.00,0.0,WeatherDisplay:10.37,2013-03-21 00:33:00,
2013-03-20 19:38:00,16.8,6.4,30.16,NW,319,2.0,2.0,63,0.00,BKN,,0.00,0.0,WeatherDisplay:10.37,2013-03-21 00:38:00,
2013-03-20 19:43:00,16.5,5.7,30.16,NW,323,1.1,0.0,62,0.00,BKN,,0.00,0.0,WeatherDisplay:10.37,2013-03-21 00:43:00,
2013-03-20 19:48:00,16.3,5.5,30.16,NNE,21,2.3,2.3,62,0.00,BKN,,0.00,0.0,WeatherDisplay:10.37,2013-03-21 00:48:00,
2013-03-20 19:53:00,16.1,5.7,30.16,SW,223,1.1,0.0,63,0.00,BKN,,0.00,0.0,WeatherDisplay:10.37,2013-03-21 00:53:00,
2013-03-20 19:58:00,15.9,5.5,30.16,NW,306,0.0,0.1,63,0.00,BKN,,0.00,0.0,WeatherDisplay:10.37,2013-03-21 00:58:00,
2013-03-20 20:03:00,15.4,5.4,30.16,North,5,1.1,1.1,64,0.00,OVC,,0.00,0.0,WeatherDisplay:10.37,2013-03-21 01:03:00,
2013-03-20 20:08:00,15.0,5.7,30.16,NW,304,0.0,0.0,66,0.00,OVC,,0.00,0.0,WeatherDisplay:10.37,2013-03-21 01:08:00,
2013-03-20 20:13:00,14.6,5.3,30.16,WNW,286,2.3,2.3,66,0.00,OVC,,0.00,0.0,WeatherDisplay:10.37,2013-03-21 01:13:00,
2013-03-20 20:18:00,14.3,5.7,30.16,WNW,286,0.0,0.0,68,0.00,OVC,,0.00,0.0,WeatherDisplay:10.37,2013-03-21 01:18:00,
2013-03-20 20:23:00,14.1,5.5,30.16,WNW,286,0.0,0.0,68,0.00,OVC,,0.00,0.0,WeatherDisplay:10.37,2013-03-21 01:23:00,
2013-03-20 20:28:00,13.5,5.2,30.16,WNW,286,0.0,0.0,69,0.00,OVC,,0.00,0.0,WeatherDisplay:10.37,2013-03-21 01:28:00,
2013-03-20 20:33:00,13.2,4.9,30.16,WNW,286,0.0,0.0,69,0.00,OVC,,0.00,0.0,WeatherDisplay:10.37,2013-03-21 01:33:00,
2013-03-20 20:38:00,12.6,5.0,30.16,WNW,286,0.0,0.0,71,0.00,OVC,,0.00,0.0,WeatherDisplay:10.37,2013-03-21 01:38:00,
2013-03-20 20:43:00,12.1,4.5,30.16,WNW,286,0.0,0.0,71,0.00,OVC,,0.00,0.0,WeatherDisplay:10.37,2013-03-21 01:43:00,
2013-03-20 20:48:00,11.6,4.0,30.15,WNW,286,0.0,0.0,71,0.00,OVC,,0.00,0.0,WeatherDisplay:10.37,2013-03-21 01:48:00,
2013-03-20 20:53:00,11.1,3.8,30.15,WNW,286,0.0,0.0,72,0.00,OVC,,0.00,0.0,WeatherDisplay:10.37,2013-03-21 01:53:00,
2013-03-20 20:58:00,10.5,3.8,30.16,WNW,286,0.0,0.0,74,0.00,OVC,,0.00,0.0,WeatherDisplay:10.37,2013-03-21 01:58:00,
2013-03-20 21:03:00,10.1,3.5,30.16,WNW,286,0.0,0.0,74,0.00,OVC,,0.00,0.0,WeatherDisplay:10.37,2013-03-21 02:03:00,
2013-03-20 21:09:00,9.8,3.2,30.16,WNW,286,0.0,0.0,74,0.00,OVC,,0.00,0.0,WeatherDisplay:10.37,2013-03-21 02:09:00,
2013-03-20 21:14:00,9.5,2.9,30.16,WNW,286,0.0,0.0,74,0.00,OVC,,0.00,0.0,WeatherDisplay:10.37,2013-03-21 02:14:00,
2013-03-20 21:19:00,9.1,2.8,30.16,WNW,286,0.0,0.0,75,0.00,BKN,,0.00,0.0,WeatherDisplay:10.37,2013-03-21 02:19:00,
2013-03-20 21:24:00,8.5,2.2,30.16,WNW,286,0.0,0.0,75,0.00,BKN,,0.00,0.0,WeatherDisplay:10.37,2013-03-21 02:24:00,
2013-03-20 21:29:00,8.0,1.7,30.16,WNW,286,0.0,0.0,75,0.00,BKN,,0.00,0.0,WeatherDisplay:10.37,2013-03-21 02:29:00,
2013-03-20 21:34:00,7.5,0.9,30.16,WNW,286,0.0,0.0,74,0.00,BKN,,0.00,0.0,WeatherDisplay:10.37,2013-03-21 02:34:00,
2013-03-20 21:39:00,7.1,0.8,30.16,WNW,286,0.0,0.0,75,0.00,BKN,,0.00,0.0,WeatherDisplay:10.37,2013-03-21 02:39:00,
2013-03-20 21:44:00,6.6,0.4,30.16,WNW,286,0.0,0.0,75,0.00,BKN,,0.00,0.0,WeatherDisplay:10.37,2013-03-21 02:44:00,
2013-03-20 21:49:00,6.1,-0.1,30.16,WNW,286,0.0,0.0,75,0.00,BKN,,0.00,0.0,WeatherDisplay:10.37,2013-03-21 02:49:00,
2013-03-20 21:54:00,5.7,-0.2,30.17,WNW,286,0.0,0.0,76,0.00,BKN,,0.00,0.0,WeatherDisplay:10.37,2013-03-21 02:54:00,
2013-03-20 21:59:00,5.4,-0.5,30.16,WNW,286,0.0,0.0,76,0.00,BKN,,0.00,0.0,WeatherDisplay:10.37,2013-03-21 02:59:00,
2013-03-20 22:04:00,5.0,-0.9,30.17,WNW,286,0.0,0.0,76,0.00,BKN,,0.00,0.0,WeatherDisplay:10.37,2013-03-21 03:04:00,
2013-03-20 22:09:00,4.7,-1.2,30.17,WNW,286,0.0,0.0,76,0.00,BKN,,0.00,0.0,WeatherDisplay:10.37,2013-03-21 03:09:00,
2013-03-20 22:14:00,4.4,-1.5,30.17,WNW,286,0.0,0.0,76,0.00,BKN,,0.00,0.0,WeatherDisplay:10.37,2013-03-21 03:14:00,
2013-03-20 22:19:00,4.0,-1.6,30.17,WNW,286,0.0,0.0,77,0.00,BKN,,0.00,0.0,WeatherDisplay:10.37,2013-03-21 03:19:00,
2013-03-20 22:24:00,3.7,-1.9,30.17,WNW,286,0.0,0.0,77,0.00,BKN,,0.00,0.0,WeatherDisplay:10.37,2013-03-21 03:24:00,
2013-03-20 22:29:00,3.4,-2.2,30.17,WNW,286,0.0,0.0,77,0.00,BKN,,0.00,0.0,WeatherDisplay:10.37,2013-03-21 03:29:00,
2013-03-20 22:34:00,3.2,-2.1,30.17,WNW,286,0.0,0.0,78,0.00,BKN,,0.00,0.0,WeatherDisplay:10.37,2013-03-21 03:34:00,
2013-03-20 22:39:00,3.2,-1.8,30.17,WNW,286,0.0,0.0,79,0.00,BKN,,0.00,0.0,WeatherDisplay:10.37,2013-03-21 03:39:00,
2013-03-20 22:44:00,3.3,-1.7,30.17,WNW,286,0.0,0.0,79,0.00,BKN,,0.00,0.0,WeatherDisplay:10.37,2013-03-21 03:44:00,
2013-03-20 22:49:00,3.3,-1.7,30.17,WNW,286,0.0,0.0,79,0.00,BKN,,0.00,0.0,WeatherDisplay:10.37,2013-03-21 03:49:00,
2013-03-20 22:54:00,3.3,-1.7,30.17,WNW,286,0.0,0.0,79,0.00,BKN,,0.00,0.0,WeatherDisplay:10.37,2013-03-21 03:54:00,
2013-03-20 22:59:00,3.3,-2.0,30.17,WNW,286,0.0,0.0,78,0.00,BKN,,0.00,0.0,WeatherDisplay:10.37,2013-03-21 03:59:00,
2013-03-20 23:00:00,3.3,-2.0,30.17,WNW,286,0.0,0.0,78,0.00,BKN,,0.00,0.0,WeatherDisplay:10.37,2013-03-21 04:00:00,
2013-03-20 23:05:00,3.3,-2.0,30.17,WNW,286,0.0,0.0,78,0.00,BKN,,0.00,0.0,WeatherDisplay:10.37,2013-03-21 04:05:00,
2013-03-20 23:10:00,3.1,-2.2,30.17,WNW,286,0.0,0.0,78,0.00,BKN,,0.00,0.0,WeatherDisplay:10.37,2013-03-21 04:10:00,
2013-03-20 23:15:00,2.8,-2.5,30.16,WNW,286,0.0,0.0,78,0.00,BKN,,0.00,0.0,WeatherDisplay:10.37,2013-03-21 04:15:00,
2013-03-20 23:20:00,2.6,-2.4,30.16,WNW,286,0.0,0.0,79,0.00,CLR,,0.00,0.0,WeatherDisplay:10.37,2013-03-21 04:20:00,
2013-03-20 23:25:00,2.4,-2.6,30.16,WNW,286,0.0,0.0,79,0.00,CLR,,0.00,0.0,WeatherDisplay:10.37,2013-03-21 04:25:00,
2013-03-20 23:30:00,2.2,-2.8,30.16,WNW,286,0.0,0.0,79,0.00,CLR,,0.00,0.0,WeatherDisplay:10.37,2013-03-21 04:30:00,
2013-03-20 23:35:00,2.0,-3.0,30.17,WNW,286,0.0,0.0,79,0.00,CLR,,0.00,0.0,WeatherDisplay:10.37,2013-03-21 04:35:00,
2013-03-20 23:40:00,1.8,-3.2,30.17,WNW,286,0.0,0.0,79,0.00,CLR,,0.00,0.0,WeatherDisplay:10.37,2013-03-21 04:40:00,
2013-03-20 23:45:00,1.5,-3.5,30.17,WNW,286,0.0,0.0,79,0.00,CLR,,0.00,0.0,WeatherDisplay:10.37,2013-03-21 04:45:00,
2013-03-20 23:50:00,1.3,-3.7,30.16,WNW,286,0.0,0.0,79,0.00,CLR,,0.00,0.0,WeatherDisplay:10.37,2013-03-21 04:50:00,
2013-03-20 23:55:00,1.0,-4.0,30.16,WNW,286,0.0,0.0,79,0.00,CLR,,0.00,0.0,WeatherDisplay:10.37,2013-03-21 04:55:00,